�������l�o���
Date,Time,MP-1(��Sv/h),MP-2(��Sv/h),MP-3(��Sv/h),MP-4(��Sv/h),MP-5(��Sv/h),MP-6(��Sv/h),MP-7(��Sv/h),MP-8(��Sv/h),����,����(m/s),���J
2017/11/01,00:00,0.893,1.423,0.894,1.701,1.143,0.495,0.900,0.841,��,7.0,��
2017/11/01,00:10,0.892,1.423,0.897,1.702,1.142,0.494,0.902,0.840,��,4.9,��
2017/11/01,00:20,0.893,1.424,0.898,1.699,1.142,0.496,0.902,0.839,���k��,5.8,��
2017/11/01,00:30,0.893,1.422,0.899,1.699,1.143,0.494,0.901,0.840,���k��,5.3,��
2017/11/01,00:40,0.894,1.422,0.896,1.697,1.145,0.497,0.901,0.838,�k��,5.1,��
2017/11/01,00:50,0.893,1.423,0.897,1.700,1.141,0.495,0.900,0.838,�k��,3.8,��
2017/11/01,01:00,0.893,1.425,0.896,1.700,1.144,0.496,0.899,0.840,���k��,2.8,��
2017/11/01,01:10,0.892,1.425,0.895,1.702,1.142,0.496,0.900,0.839,���k��,1.5,��
2017/11/01,01:20,0.892,1.422,0.897,1.701,1.141,0.494,0.900,0.840,��,2.0,��
2017/11/01,01:30,0.892,1.423,0.896,1.700,1.143,0.497,0.900,0.839,��,3.2,��
2017/11/01,01:40,0.893,1.424,0.895,1.698,1.145,0.494,0.901,0.841,���쐼,2.6,��
2017/11/01,01:50,0.893,1.422,0.896,1.702,1.142,0.494,0.901,0.840,��쐼,2.3,��
2017/11/01,02:00,0.893,1.423,0.894,1.700,1.144,0.494,0.899,0.839,�쐼,2.3,��
2017/11/01,02:10,0.892,1.420,0.895,1.698,1.140,0.495,0.899,0.840,�쐼,3.1,��
2017/11/01,02:20,0.893,1.423,0.896,1.699,1.142,0.494,0.901,0.840,��쐼,3.3,��
2017/11/01,02:30,0.892,1.423,0.896,1.696,1.143,0.493,0.900,0.839,�쐼,2.9,��
2017/11/01,02:40,0.892,1.421,0.896,1.699,1.142,0.494,0.899,0.839,���쐼,2.8,��
2017/11/01,02:50,0.892,1.422,0.894,1.699,1.145,0.493,0.899,0.839,���쐼,2.3,��
2017/11/01,03:00,0.891,1.420,0.896,1.700,1.143,0.495,0.899,0.839,�쐼,2.0,��
2017/11/01,03:10,0.891,1.421,0.894,1.698,1.143,0.496,0.900,0.838,�쐼,2.6,��
2017/11/01,03:20,0.893,1.423,0.895,1.698,1.140,0.494,0.901,0.840,�쐼,2.9,��
2017/11/01,03:30,0.892,1.421,0.896,1.702,1.142,0.494,0.901,0.840,�쐼,3.5,��
2017/11/01,03:40,0.891,1.423,0.895,1.700,1.142,0.495,0.900,0.841,�쐼,3.6,��
2017/11/01,03:50,0.892,1.424,0.897,1.700,1.143,0.496,0.901,0.838,��쐼,3.2,��
2017/11/01,04:00,0.892,1.422,0.895,1.700,1.142,0.496,0.898,0.841,��쐼,3.7,��
2017/11/01,04:10,0.891,1.422,0.897,1.701,1.142,0.494,0.901,0.838,��쐼,4.0,��
2017/11/01,04:20,0.892,1.422,0.897,1.701,1.144,0.495,0.898,0.840,��쐼,3.8,��
2017/11/01,04:30,0.891,1.421,0.895,1.700,1.143,0.494,0.900,0.840,��쐼,3.6,��
2017/11/01,04:40,0.892,1.422,0.897,1.700,1.143,0.493,0.900,0.839,��쐼,2.8,��
2017/11/01,04:50,0.894,1.421,0.895,1.698,1.140,0.493,0.900,0.840,��쐼,2.8,��
2017/11/01,05:00,0.891,1.423,0.896,1.699,1.144,0.494,0.899,0.839,��쐼,2.0,��
2017/11/01,05:10,0.892,1.422,0.895,1.699,1.142,0.494,0.898,0.841,��쐼,1.9,��
2017/11/01,05:20,0.895,1.422,0.895,1.699,1.143,0.493,0.899,0.840,��,1.7,��
2017/11/01,05:30,0.892,1.421,0.898,1.699,1.141,0.496,0.900,0.840,��,2.3,��
2017/11/01,05:40,0.892,1.422,0.897,1.699,1.144,0.494,0.900,0.838,��,4.0,��
2017/11/01,05:50,0.893,1.422,0.897,1.700,1.143,0.494,0.898,0.839,��,3.9,��
2017/11/01,06:00,0.891,1.420,0.896,1.699,1.144,0.494,0.901,0.840,��,3.7,��
2017/11/01,06:10,0.894,1.422,0.895,1.694,1.142,0.495,0.900,0.840,��,3.4,��
2017/11/01,06:20,0.894,1.424,0.894,1.701,1.142,0.493,0.899,0.839,��,3.5,��
2017/11/01,06:30,0.890,1.424,0.896,1.700,1.143,0.494,0.899,0.837,��쐼,3.8,��
2017/11/01,06:40,0.890,1.423,0.894,1.698,1.142,0.494,0.900,0.840,��쐼,3.2,��
2017/11/01,06:50,0.893,1.421,0.894,1.701,1.144,0.495,0.899,0.839,�쐼,3.6,��
2017/11/01,07:00,0.893,1.425,0.896,1.701,1.144,0.496,0.900,0.840,�쐼,4.3,��
2017/11/01,07:10,0.891,1.422,0.894,1.699,1.144,0.495,0.900,0.841,��쐼,4.4,��
2017/11/01,07:20,0.892,1.422,0.895,1.701,1.143,0.494,0.901,0.840,��쐼,5.3,��
2017/11/01,07:30,0.892,1.425,0.895,1.701,1.145,0.496,0.900,0.840,��,5.9,��
2017/11/01,07:40,0.894,1.423,0.896,1.699,1.137,0.495,0.902,0.841,��쐼,5.1,��
2017/11/01,07:50,0.895,1.426,0.896,1.700,1.135,0.496,0.903,0.840,��쐼,5.1,��
2017/11/01,08:00,0.895,1.424,0.898,1.697,1.133,0.495,0.900,0.839,��,6.4,��
2017/11/01,08:10,0.896,1.422,0.897,1.696,1.132,0.496,0.901,0.838,��,6.6,��
2017/11/01,08:20,0.894,1.426,0.895,1.698,1.131,0.495,0.903,0.841,��,5.7,��
2017/11/01,08:30,0.897,1.427,0.898,1.696,1.136,0.494,0.902,0.840,��,5.6,��
2017/11/01,08:40,0.895,1.424,0.897,1.694,1.136,0.496,0.903,0.840,��,5.3,��
2017/11/01,08:50,0.897,1.424,0.898,1.695,1.136,0.494,0.902,0.842,��,4.7,��
2017/11/01,09:00,0.898,1.425,0.901,1.697,1.135,0.496,0.903,0.843,��,3.7,��
2017/11/01,09:10,0.899,1.426,0.898,1.696,1.135,0.497,0.904,0.841,��쓌,4.7,��
2017/11/01,09:20,0.900,1.423,0.899,1.693,1.136,0.497,0.902,0.842,��,5.4,��
2017/11/01,09:30,0.901,1.423,0.900,1.689,1.139,0.498,0.903,0.842,��,5.3,��
2017/11/01,09:40,0.900,1.423,0.899,1.689,1.138,0.496,0.901,0.843,��쓌,7.2,��
2017/11/01,09:50,0.899,1.420,0.900,1.691,1.140,0.495,0.902,0.843,��쓌,7.8,��
2017/11/01,10:00,0.900,1.425,0.900,1.693,1.140,0.494,0.902,0.844,��쓌,6.7,��
2017/11/01,10:10,0.900,1.422,0.902,1.693,1.138,0.495,0.900,0.843,��쓌,8.3,��
2017/11/01,10:20,0.897,1.423,0.900,1.695,1.139,0.494,0.904,0.843,��쓌,9.8,��
2017/11/01,10:30,0.899,1.424,0.903,1.693,1.141,0.492,0.902,0.842,��쓌,10.2,��
2017/11/01,10:40,0.900,1.426,0.901,1.695,1.139,0.495,0.903,0.839,��쓌,11.1,��
2017/11/01,10:50,0.898,1.424,0.901,1.696,1.140,0.494,0.901,0.840,��쓌,9.1,��
2017/11/01,11:00,0.897,1.428,0.902,1.694,1.140,0.495,0.902,0.839,��쓌,8.5,��
2017/11/01,11:10,0.897,1.424,0.899,1.698,1.140,0.496,0.901,0.841,��쓌,9.7,��
2017/11/01,11:20,0.897,1.427,0.897,1.699,1.140,0.497,0.903,0.840,��쓌,11.8,��
2017/11/01,11:30,0.898,1.427,0.898,1.698,1.143,0.498,0.902,0.842,��쓌,10.2,��
2017/11/01,11:40,0.899,1.425,0.899,1.698,1.142,0.498,0.904,0.842,��,10.2,��
2017/11/01,11:50,0.899,1.429,0.900,1.698,1.141,0.498,0.899,0.842,��쓌,9.4,��
2017/11/01,12:00,0.901,1.431,0.899,1.699,1.141,0.497,0.903,0.840,��,8.3,��
2017/11/01,12:10,0.898,1.433,0.898,1.700,1.144,0.497,0.903,0.840,��쓌,8.0,��
2017/11/01,12:20,0.900,1.430,0.898,1.701,1.145,0.498,0.903,0.841,��쓌,6.3,��
2017/11/01,12:30,0.899,1.434,0.901,1.704,1.145,0.499,0.903,0.843,��,5.1,��
2017/11/01,12:40,0.900,1.432,0.899,1.703,1.143,0.499,0.903,0.840,��,6.1,��
2017/11/01,12:50,0.900,1.431,0.900,1.702,1.145,0.500,0.903,0.843,��,6.1,��
2017/11/01,13:00,0.900,1.434,0.899,1.701,1.148,0.499,0.904,0.842,��쓌,4.7,��
2017/11/01,13:10,0.899,1.428,0.898,1.700,1.146,0.498,0.904,0.841,��쓌,5.0,��
2017/11/01,13:20,0.898,1.432,0.901,1.703,1.145,0.500,0.904,0.840,��쓌,5.5,��
2017/11/01,13:30,0.898,1.432,0.902,1.700,1.148,0.499,0.903,0.841,��,5.1,��
2017/11/01,13:40,0.898,1.432,0.899,1.702,1.150,0.500,0.903,0.840,��,6.7,��
2017/11/01,13:50,0.899,1.432,0.902,1.705,1.147,0.501,0.904,0.839,��,6.7,��
2017/11/01,14:00,0.900,1.429,0.901,1.702,1.147,0.497,0.903,0.842,��,6.6,��
2017/11/01,14:10,0.900,1.433,0.900,1.701,1.145,0.497,0.902,0.841,��,6.1,��
2017/11/01,14:20,0.900,1.432,0.903,1.701,1.147,0.500,0.902,0.839,��,6.6,��
2017/11/01,14:30,0.900,1.432,0.902,1.700,1.146,0.499,0.901,0.840,��,5.9,��
2017/11/01,14:40,0.901,1.430,0.904,1.701,1.149,0.499,0.903,0.843,��,6.0,��
2017/11/01,14:50,0.901,1.433,0.905,1.703,1.147,0.499,0.903,0.840,��,4.3,��
2017/11/01,15:00,0.902,1.433,0.904,1.703,1.147,0.498,0.901,0.842,��,4.7,��
2017/11/01,15:10,0.901,1.437,0.904,1.701,1.149,0.497,0.901,0.843,��,4.0,��
2017/11/01,15:20,0.900,1.434,0.904,1.703,1.150,0.500,0.903,0.844,��,4.5,��
2017/11/01,15:30,0.901,1.438,0.906,1.701,1.150,0.501,0.903,0.842,��,4.9,��
2017/11/01,15:40,0.899,1.439,0.904,1.699,1.149,0.501,0.902,0.843,��,5.7,��
2017/11/01,15:50,0.905,1.437,0.905,1.699,1.151,0.501,0.902,0.842,��,6.5,��
2017/11/01,16:00,0.900,1.435,0.904,1.700,1.151,0.503,0.902,0.843,��,6.5,��
2017/11/01,16:10,0.902,1.438,0.904,1.703,1.148,0.500,0.902,0.843,��,7.1,��
2017/11/01,16:20,0.903,1.436,0.906,1.702,1.152,0.501,0.903,0.843,��,9.1,��
2017/11/01,16:30,0.903,1.438,0.904,1.700,1.150,0.500,0.905,0.844,��,7.9,��
2017/11/01,16:40,0.902,1.435,0.906,1.702,1.150,0.500,0.905,0.843,��,7.9,��
2017/11/01,16:50,0.904,1.436,0.905,1.700,1.152,0.501,0.903,0.844,��,6.9,��
2017/11/01,17:00,0.903,1.437,0.904,1.704,1.151,0.502,0.904,0.842,��,4.9,��
2017/11/01,17:10,0.903,1.436,0.904,1.700,1.148,0.501,0.905,0.845,��쐼,3.3,��
2017/11/01,17:20,0.902,1.437,0.903,1.700,1.149,0.500,0.905,0.844,��쐼,2.5,��
2017/11/01,17:30,0.903,1.437,0.903,1.700,1.150,0.501,0.903,0.843,��,2.0,��
2017/11/01,17:40,0.903,1.436,0.905,1.701,1.150,0.501,0.905,0.844,��,2.9,��
2017/11/01,17:50,0.903,1.439,0.905,1.700,1.151,0.499,0.906,0.842,��,3.0,��
2017/11/01,18:00,0.903,1.436,0.903,1.701,1.151,0.501,0.906,0.844,��,2.3,��
2017/11/01,18:10,0.903,1.437,0.902,1.700,1.150,0.499,0.905,0.843,��,3.7,��
2017/11/01,18:20,0.903,1.436,0.904,1.701,1.150,0.500,0.906,0.843,��,4.4,��
2017/11/01,18:30,0.903,1.434,0.902,1.700,1.150,0.500,0.904,0.845,��쐼,4.0,��
2017/11/01,18:40,0.903,1.435,0.905,1.700,1.152,0.500,0.906,0.842,��쐼,3.9,��
2017/11/01,18:50,0.901,1.436,0.903,1.702,1.150,0.499,0.904,0.844,��쐼,2.6,��
2017/11/01,19:00,0.903,1.434,0.905,1.701,1.149,0.498,0.904,0.842,��쐼,3.4,��
2017/11/01,19:10,0.903,1.438,0.902,1.700,1.149,0.500,0.902,0.843,��쐼,3.3,��
2017/11/01,19:20,0.904,1.434,0.904,1.699,1.153,0.499,0.903,0.842,��쐼,3.3,��
2017/11/01,19:30,0.903,1.433,0.903,1.702,1.151,0.500,0.905,0.843,��쐼,3.4,��
2017/11/01,19:40,0.903,1.437,0.905,1.700,1.153,0.499,0.904,0.843,�쐼,3.6,��
2017/11/01,19:50,0.900,1.437,0.904,1.703,1.154,0.500,0.904,0.843,�쐼,3.0,��
2017/11/01,20:00,0.904,1.435,0.903,1.700,1.149,0.501,0.903,0.844,���쐼,2.3,��
2017/11/01,20:10,0.903,1.438,0.906,1.699,1.154,0.500,0.903,0.844,��,1.9,��
2017/11/01,20:20,0.904,1.432,0.903,1.700,1.152,0.501,0.904,0.843,���쐼,1.7,��
2017/11/01,20:30,0.902,1.435,0.906,1.702,1.153,0.500,0.905,0.843,���쐼,1.5,��
2017/11/01,20:40,0.903,1.434,0.905,1.701,1.152,0.501,0.904,0.841,�쐼,0.8,��
2017/11/01,20:50,0.904,1.435,0.903,1.699,1.150,0.499,0.903,0.843,-,CALM,��
2017/11/01,21:00,0.901,1.434,0.903,1.699,1.154,0.499,0.905,0.844,�k,0.8,��
2017/11/01,21:10,0.900,1.434,0.903,1.701,1.154,0.500,0.903,0.843,�k�k��,0.9,��
2017/11/01,21:20,0.901,1.435,0.904,1.700,1.153,0.500,0.904,0.843,�k�k��,2.0,��
2017/11/01,21:30,0.904,1.435,0.904,1.698,1.151,0.500,0.905,0.841,�k,1.7,��
2017/11/01,21:40,0.905,1.435,0.904,1.702,1.153,0.499,0.905,0.842,�k,1.5,��
2017/11/01,21:50,0.903,1.436,0.903,1.698,1.153,0.501,0.905,0.845,�k�k��,0.9,��
2017/11/01,22:00,0.902,1.436,0.903,1.701,1.153,0.500,0.904,0.842,�k��,0.6,��
2017/11/01,22:10,0.903,1.434,0.903,1.701,1.152,0.498,0.904,0.844,���쐼,0.9,��
2017/11/01,22:20,0.903,1.433,0.903,1.701,1.153,0.498,0.904,0.843,��,0.6,��
2017/11/01,22:30,0.901,1.437,0.904,1.701,1.153,0.499,0.905,0.843,���k��,0.9,��
2017/11/01,22:40,0.903,1.437,0.902,1.701,1.154,0.499,0.905,0.843,���k��,1.4,��
2017/11/01,22:50,0.902,1.435,0.905,1.702,1.151,0.499,0.905,0.843,�k��,2.0,��
2017/11/01,23:00,0.903,1.434,0.901,1.700,1.153,0.498,0.904,0.842,�k��,1.1,��
2017/11/01,23:10,0.903,1.436,0.901,1.700,1.154,0.500,0.905,0.844,�k��,3.2,��
2017/11/01,23:20,0.902,1.435,0.905,1.699,1.153,0.499,0.905,0.840,�k��,5.9,��
2017/11/01,23:30,0.902,1.436,0.902,1.701,1.153,0.499,0.904,0.843,�k��,6.8,��
2017/11/01,23:40,0.905,1.435,0.905,1.702,1.153,0.498,0.904,0.843,�k��,8.6,��
2017/11/01,23:50,0.902,1.433,0.905,1.701,1.154,0.498,0.904,0.843,�k��,9.5,��
